Hill City, KS

4:14 PM CDT on April 28, 2017 (GMT -0500)
Hill City Municipal

Weather History for KHLC - September, 2013

Change the Weather History Date:

Thursday, September 26, 2013

  Actual Average Record
Temperature  
Mean Temperature 80 °F 63 °F  
Max Temperature 96 °F 77 °F 96 °F (2013)
Min Temperature 64 °F 49 °F 27 °F (1984)
Cooling Degree Days 14    
Growing Degree Days 30 (Base 50)    
Moisture  
Dew Point 53 °F    
Average Humidity 42    
Maximum Humidity 65    
Minimum Humidity 23    
Precipitation  
Precipitation 0.00 in 0.06 in 0.13 in (1996)
Month to date precipitation 1.50 1.65  
Year to date precipitation 14.44 19.53  
Sea Level Pressure  
Sea Level Pressure 29.57 in    
Wind  
Wind Speed 15 mph (South)    
Max Wind Speed 20 mph    
Max Gust Speed 36 mph    
Visibility 10 miles    
Events      
T = Trace of Precipitation, MM = Missing Value Source: NWS Daily Summary

Daily Weather History Graph

Daily Weather History Graph

Search for Another Location

Airport or City:

Trip Planner

Search our weather history database for the weather conditions in past years. The results will help you decide how hot, cold, wet, or windy it might be!

Date:

Astronomy

Sep. 26, 2013 Rise Set
Actual Time 7:30 AM CDT 7:29 PM CDT
Civil Twilight 7:04 AM CDT 7:56 PM CDT
Nautical Twilight 6:32 AM CDT 8:27 PM CDT
Astronomical Twilight 6:01 AM CDT 8:58 PM CDT
Moon No Moon Rise 2:22 PM CDT (9/26)
Length of Visible Light 12h 51m
Length of Day
11h 58m
Waning Gibbous, 54% of the Moon is Illuminated
Sep 26
Waning Gibbous
Sep 26
Last Quarter
Oct 4
New
Oct 11
First Quarter
Oct 18
Full

Hourly Weather History & Observations

Time (CDT) Temp. Heat Index Dew Point Humidity Pressure Visibility Wind Dir Wind Speed Gust Speed Precip Events Conditions
12:53 AM 70.0 °F - 48.9 °F 47% 29.56 in 10.0 mi SSE 16.1 mph 28.8 mph N/A   Clear
1:53 AM 70.0 °F - 48.0 °F 46% 29.55 in 10.0 mi South 16.1 mph 27.6 mph N/A   Clear
2:53 AM 69.1 °F - 48.9 °F 49% 29.55 in 10.0 mi South 16.1 mph 27.6 mph N/A   Clear
3:53 AM 68.0 °F - 50.0 °F 52% 29.54 in 10.0 mi South 16.1 mph 25.3 mph N/A   Clear
4:53 AM 68.0 °F - 51.1 °F 55% 29.54 in 10.0 mi South 16.1 mph 24.2 mph N/A   Clear
5:53 AM 66.9 °F - 52.0 °F 59% 29.55 in 10.0 mi South 15.0 mph 25.3 mph N/A   Clear
6:53 AM 66.0 °F - 52.0 °F 60% 29.56 in 10.0 mi South 12.7 mph - N/A   Clear
7:53 AM 64.9 °F - 53.1 °F 65% 29.59 in 10.0 mi South 8.1 mph - N/A   Clear
8:53 AM 69.1 °F - 54.0 °F 58% 29.61 in 10.0 mi Calm Calm - N/A   Clear
9:53 AM 73.0 °F - 54.0 °F 51% 29.62 in 10.0 mi SSW 15.0 mph 21.9 mph N/A   Clear
10:53 AM 79.0 °F - 54.0 °F 42% 29.61 in 10.0 mi SSW 12.7 mph 19.6 mph N/A   Clear
11:53 AM 82.0 °F 81.2 °F 53.1 °F 37% 29.61 in 10.0 mi South 13.8 mph 19.6 mph N/A   Clear
12:53 PM 88.0 °F 85.7 °F 53.1 °F 30% 29.59 in 10.0 mi SSW 11.5 mph 21.9 mph N/A   Clear
1:53 PM 91.0 °F - 51.1 °F 25% 29.57 in 10.0 mi SSW 19.6 mph 28.8 mph N/A   Clear
2:53 PM 93.0 °F 90.6 °F 53.1 °F 26% 29.55 in 10.0 mi South 19.6 mph 25.3 mph N/A   Clear
3:53 PM 95.0 °F 92.5 °F 53.1 °F 24% 29.53 in 10.0 mi South 17.3 mph 29.9 mph N/A   Clear
4:53 PM 95.0 °F - 52.0 °F 23% 29.53 in 10.0 mi South 18.4 mph 31.1 mph N/A   Clear
5:53 PM 93.0 °F 90.6 °F 53.1 °F 26% 29.52 in 10.0 mi SSE 15.0 mph 26.5 mph N/A   Clear
6:53 PM 90.0 °F 87.9 °F 55.0 °F 30% 29.53 in 10.0 mi SSE 17.3 mph 28.8 mph N/A   Clear
7:53 PM 86.0 °F 84.5 °F 55.0 °F 35% 29.55 in 10.0 mi SSE 12.7 mph - N/A   Clear
8:53 PM 84.0 °F 82.9 °F 55.0 °F 37% 29.57 in 10.0 mi South 16.1 mph 21.9 mph N/A   Clear
9:53 PM 82.0 °F 81.4 °F 55.0 °F 39% 29.59 in 10.0 mi South 15.0 mph 24.2 mph N/A   Clear
10:53 PM 81.0 °F 80.7 °F 55.0 °F 41% 29.60 in 10.0 mi South 18.4 mph 26.5 mph N/A   Clear
11:53 PM 80.1 °F 80.0 °F 54.0 °F 40% 29.60 in 10.0 mi South 18.4 mph 35.7 mph N/A   Clear